(309750) = 2006 HE89 = 2008 VR2

Discovered at Socorro on 2008-11-02 by LINEAR.

Orbit

Orbit type: Main Belt

Note: WebGL enabled browser required.

epoch2022-01-21.0
epoch JD2459600.5
perihelion date2021-08-31.36843
perihelion JD2459457.86843
argument of perihelion (°)50.33465
ascending node (°)46.75272
inclination (°)15.31210
eccentricity0.0430470
perihelion distance (AU)2.4712109
Tisserand w.r.t. Jupiter3.4
ΔV w.r.t. Earth (km/sec)11.0
semimajor axis (AU)2.5823743
mean anomaly (°)33.87589
mean daily motion (°/day)0.23750630
aphelion distance (AU)2.694
period (years)4.15
P-vector [x]-0.10347841
P-vector [y]0.81243307
P-vector [z]0.57379850
Q-vector [x]-0.97585449
Q-vector [y]-0.19449468
Q-vector [z]0.09939734
absolute magnitude16.29
phase slope0.15
uncertainty0
referenceMPO 697334
observations used567
oppositions11
arc length (days)7811
first opposition used2000
last opposition used2022
residual rms (arc-secs)0.77
perturbers coarse indicatorM-v
perturbers precise indicator003Ek
first observation date used2000-12-06.0
last observation date used2022-04-26.0
computer namePan
JD of orbit computation2456877.817078
perihelion JD uncertainty (days)1.0087E-03
argument of perihelion uncertainty (°)2.5148E-04
ascending node uncertainty (°)1.8526E-05
inclination uncertainty (°)1.1456E-05
eccentricity uncertainty 1.0112E-07
perihelion distance uncertainty (AU)2.5480E-07
Minimum Orbit Intersection Distances (in AU)
for orbit epoch: 2459600.5, reference: E2022-B04
Mercury2.15869
Venus1.76564
Earth1.50567
Mars0.95446
Jupiter2.42387
Saturn6.648
Uranus15.8986
Neptune27.3303

Observations

576 total observations over interval: 2000 12 06.38174 – 2022 04 26.193563
These data are available for download (format description).

Date (UT) J2000 RA J2000 Dec Magn Location Ref
2000 12 06.38174 07 48 29.06 +39 36 32.0   704 – Lincoln Laboratory ETS, New Mexico MPS 407658
2002 04 03.44185 15 17 43.75 -14 16 10.5 20.8 V 291 – LPL/Spacewatch II MPS 272776
2002 04 03.46347 15 17 42.97 -14 16 13.5 21.0 V 291 – LPL/Spacewatch II MPS 272776
2002 04 03.48375 15 17 42.24 -14 16 16.3 20.9 V 291 – LPL/Spacewatch II MPS 272776
2002 05 09.36783 14 44 40.98 -15 12 46.2 19.7   644 – Palomar Mountain/NEAT MPS 272776
2002 05 09.37814 14 44 40.29 -15 12 46.8 19.4   644 – Palomar Mountain/NEAT MPS 272776
2002 05 09.39456 14 44 39.24 -15 12 48.2 20.0   644 – Palomar Mountain/NEAT MPS 272776
2006 04 19.24429 13 58 22.62 -03 42 59.5 19.5 R 699 – Lowell Observatory-LONEOS MPS 170941
2006 04 19.27171 13 58 20.89 -03 43 00.0   699 – Lowell Observatory-LONEOS MPS 170941
2006 04 19.30074 13 58 19.02 -03 43 00.8   699 – Lowell Observatory-LONEOS MPS 170941
2006 04 19.33098 13 58 16.94 -03 42 59.3   699 – Lowell Observatory-LONEOS MPS 170941
2006 04 19.36630 13 58 14.80 -03 43 00.4 20.0 V 703 – Catalina Sky Survey MPS 170941
2006 04 19.37435 13 58 14.26 -03 43 00.8 19.3 V 703 – Catalina Sky Survey MPS 170941
2006 04 19.38243 13 58 13.69 -03 43 01.7 19.9 V 703 – Catalina Sky Survey MPS 170941
2006 04 19.39052 13 58 13.08 -03 43 00.8 19.3 V 703 – Catalina Sky Survey MPS 170941
2006 04 30.31268 13 46 54.29 -03 49 22.8 19.4   704 – Lincoln Laboratory ETS, New Mexico MPS 170941
2006 04 30.32385 13 46 53.63 -03 49 23.1 19.5   704 – Lincoln Laboratory ETS, New Mexico MPS 170941
2006 04 30.33570 13 46 52.88 -03 49 24.7 19.8   704 – Lincoln Laboratory ETS, New Mexico MPS 170941
2006 05 28.26952 13 26 02.07 -05 03 50.4 20.5 V G96 – Mt. Lemmon Survey MPS 268836
2006 05 28.27551 13 26 01.89 -05 03 52.0 19.8 V G96 – Mt. Lemmon Survey MPS 268836
2006 05 28.28150 13 26 01.75 -05 03 53.6 20.4 V G96 – Mt. Lemmon Survey MPS 268836
2006 05 28.28766 13 26 01.57 -05 03 55.4 20.3 V G96 – Mt. Lemmon Survey MPS 268836
2008 09 07.43080 04 37 17.65 +22 12 46.9 20.5 V G96 – Mt. Lemmon Survey MPS 267719
2008 09 07.43522 04 37 17.90 +22 12 48.7 21.0 V G96 – Mt. Lemmon Survey MPS 267719
2008 09 07.43962 04 37 18.15 +22 12 50.2 20.7 V G96 – Mt. Lemmon Survey MPS 267719
2008 09 07.44406 04 37 18.37 +22 12 52.0 20.2 V G96 – Mt. Lemmon Survey MPS 267719
2008 10 04.46777 04 52 59.30 +25 06 14.8 20.1 V G96 – Mt. Lemmon Survey MPS 267719
2008 10 04.47212 04 52 59.37 +25 06 16.6 20.0 V G96 – Mt. Lemmon Survey MPS 267719
2008 10 04.47651 04 52 59.41 +25 06 18.3 20.0 V G96 – Mt. Lemmon Survey MPS 267719
2008 10 04.48085 04 52 59.48 +25 06 20.2 19.9 V G96 – Mt. Lemmon Survey MPS 267719
2008 11 02.31490 04 46 10.50 +28 20 07.9 19.6   704 – Lincoln Laboratory ETS, New Mexico MPS 263579
2008 11 02.32663 04 46 10.02 +28 20 15.5 20.6   704 – Lincoln Laboratory ETS, New Mexico MPS 263579
2008 11 02.33845 04 46 09.47 +28 20 18.1 20.7   704 – Lincoln Laboratory ETS, New Mexico MPS 263579
2008 11 02.35019 04 46 08.85 +28 20 23.6 20.1   704 – Lincoln Laboratory ETS, New Mexico MPS 263579
2008 11 02.36204 04 46 08.38 +28 20 28.6 20.3   704 – Lincoln Laboratory ETS, New Mexico MPS 263579
2008 11 02.42712 04 46 05.41 +28 20 52.8   691 – Steward Observatory, Kitt Peak-Spacewatch MPS 263579
2008 11 02.44476 04 46 04.58 +28 21 00.0   691 – Steward Observatory, Kitt Peak-Spacewatch MPS 263579
2008 11 02.46240 04 46 03.78 +28 21 06.5   691 – Steward Observatory, Kitt Peak-Spacewatch MPS 263579
2008 11 04.31894 04 44 39.69 +28 33 03.3 20.1   704 – Lincoln Laboratory ETS, New Mexico MPS 263579
2008 11 04.33097 04 44 39.12 +28 33 09.4 19.9   704 – Lincoln Laboratory ETS, New Mexico MPS 263579
2008 11 04.34277 04 44 38.50 +28 33 13.3 19.7   704 – Lincoln Laboratory ETS, New Mexico MPS 263579
2008 11 04.35462 04 44 37.95 +28 33 18.7 20.1   704 – Lincoln Laboratory ETS, New Mexico MPS 263579
2008 11 06.42404 04 42 56.08 +28 46 21.7 19.8 V 691 – Steward Observatory, Kitt Peak-Spacewatch MPS 264838
2008 11 06.44168 04 42 55.12 +28 46 28.3 19.9 V 691 – Steward Observatory, Kitt Peak-Spacewatch MPS 264838
2008 11 06.45931 04 42 54.19 +28 46 34.8 19.9 V 691 – Steward Observatory, Kitt Peak-Spacewatch MPS 264838
2008 11 21.32866 04 27 26.07 +30 09 02.2 19.4   704 – Lincoln Laboratory ETS, New Mexico MPS 266532
2008 11 21.34123 04 27 25.14 +30 09 05.5 19.5   704 – Lincoln Laboratory ETS, New Mexico MPS 266532
2008 11 21.35422 04 27 24.14 +30 09 08.3 19.7   704 – Lincoln Laboratory ETS, New Mexico MPS 266532
2008 11 21.36678 04 27 23.19 +30 09 12.7 19.9   704 – Lincoln Laboratory ETS, New Mexico MPS 266532
2008 11 21.37943 04 27 22.28 +30 09 15.0 19.4   704 – Lincoln Laboratory ETS, New Mexico MPS 266532
2008 12 04.19167 04 11 34.38 +30 57 18.6 19.2   704 – Lincoln Laboratory ETS, New Mexico MPS 267719
2008 12 04.20430 04 11 33.56 +30 57 21.9 19.5   704 – Lincoln Laboratory ETS, New Mexico MPS 267719
2008 12 04.21698 04 11 32.57 +30 57 23.2 19.4   704 – Lincoln Laboratory ETS, New Mexico MPS 267720
2008 12 04.24233 04 11 30.58 +30 57 28.3 19.0   704 – Lincoln Laboratory ETS, New Mexico MPS 267720
2008 12 07.25551 04 07 50.80 +31 05 16.4 19.2   704 – Lincoln Laboratory ETS, New Mexico MPS 268836
2008 12 07.26830 04 07 49.85 +31 05 18.2 19.2   704 – Lincoln Laboratory ETS, New Mexico MPS 268836
2008 12 07.28097 04 07 48.91 +31 05 19.9 19.4   704 – Lincoln Laboratory ETS, New Mexico MPS 268836
2008 12 07.29362 04 07 47.92 +31 05 21.9 19.5   704 – Lincoln Laboratory ETS, New Mexico MPS 268836
2008 12 07.30639 04 07 47.04 +31 05 23.3 19.3   704 – Lincoln Laboratory ETS, New Mexico MPS 268836
2010 03 17.12117 13 24 46.52 +07 25 45.7 19.5   A77 – Observatoire Chante-Perdrix, Dauban MPS 318027
2010 03 17.14544 13 24 45.19 +07 25 49.1 19.5   A77 – Observatoire Chante-Perdrix, Dauban MPS 318027
2010 03 17.16971 13 24 44.03 +07 25 53.3 19.4   A77 – Observatoire Chante-Perdrix, Dauban MPS 318027
2010 03 18.13728 13 23 56.28 +07 28 33.2 19.6   A77 – Observatoire Chante-Perdrix, Dauban MPS 318027
2010 03 18.16146 13 23 55.04 +07 28 37.3 19.7   A77 – Observatoire Chante-Perdrix, Dauban MPS 318027
2010 03 18.18564 13 23 53.83 +07 28 41.1 19.4   A77 – Observatoire Chante-Perdrix, Dauban MPS 318027
2010 04 05.33765 13 06 23.54 +08 03 16.8 19.4 V 703 – Catalina Sky Survey MPS 320717
2010 04 05.34461 13 06 23.11 +08 03 17.2 20.1 V 703 – Catalina Sky Survey MPS 320717
2010 04 05.35154 13 06 22.57 +08 03 16.9 19.9 V 703 – Catalina Sky Survey MPS 320717
2010 04 05.35849 13 06 22.17 +08 03 14.6 19.6 V 703 – Catalina Sky Survey MPS 320717
2010 04 11.382264 13 00 09.208 +08 05 02.15 19.82 r F51 – Pan-STARRS 1, Haleakala MPS 337422
2010 04 11.391306 13 00 08.624 +08 05 01.89 19.81 r F51 – Pan-STARRS 1, Haleakala MPS 337422
2010 04 15.32556 12 56 10.68 +08 02 46.2 19.3 V 703 – Catalina Sky Survey MPS 322302
2010 04 15.33249 12 56 10.28 +08 02 43.9 19.8 V 703 – Catalina Sky Survey MPS 322302
2010 04 15.33951 12 56 09.85 +08 02 46.2 19.7 V 703 – Catalina Sky Survey MPS 322302
2010 04 15.34650 12 56 09.45 +08 02 45.0 19.4 V 703 – Catalina Sky Survey MPS 322302
2012 10 08.47293 03 40 50.77 +17 25 24.4 20.0 V G96 – Mt. Lemmon Survey MPS 434914
2012 10 08.47801 03 40 50.62 +17 25 25.0 19.9 V G96 – Mt. Lemmon Survey MPS 434914
2012 10 08.48312 03 40 50.48 +17 25 26.7 20.0 V G96 – Mt. Lemmon Survey MPS 434914
2012 10 08.48830 03 40 50.37 +17 25 27.4 19.9 V G96 – Mt. Lemmon Survey MPS 434914
2012 10 16.36163 03 36 11.41 +17 54 41.7 19.9 V 691 – Steward Observatory, Kitt Peak-Spacewatch MPS 437799
2012 10 16.36922 03 36 11.00 +17 54 43.3 19.5   704 – Lincoln Laboratory ETS, New Mexico MPS 437799
2012 10 16.37931 03 36 10.63 +17 54 45.5 20.0 V 691 – Steward Observatory, Kitt Peak-Spacewatch MPS 437799
2012 10 16.39629 03 36 09.77 +17 54 51.2 19.4   704 – Lincoln Laboratory ETS, New Mexico MPS 437799
2012 10 16.39698 03 36 09.83 +17 54 49.4 19.9 V 691 – Steward Observatory, Kitt Peak-Spacewatch MPS 437799
2012 10 16.41002 03 36 09.21 +17 54 52.6 20.0   704 – Lincoln Laboratory ETS, New Mexico MPS 437799
2012 10 16.42357 03 36 08.55 +17 54 55.3 19.7   704 – Lincoln Laboratory ETS, New Mexico MPS 437799
2012 10 20.36290 03 33 07.49 +18 08 35.6 19.9 V 691 – Steward Observatory, Kitt Peak-Spacewatch MPS 439404
